timestamp,surface_pressure_avg,surface_temp_avg,battery_voltage,lat,long
2022-08-08 00:09:00+00:00,231.7131,21.29,11.86,47.84626,-54.09684
2022-08-08 00:19:00+00:00,228.9464,21.3,11.77,47.84626,-54.09684
2022-08-08 00:29:00+00:00,225.2098,21.3,11.77,47.84626,-54.09684
2022-08-08 00:39:00+00:00,223.2064,21.3,11.77,47.84626,-54.09684
2022-08-08 00:49:00+00:00,223.083,21.3,11.77,47.84626,-54.09684
2022-08-08 00:59:00+00:00,223.5298,21.3,11.77,47.84626,-54.09684
2022-08-08 01:09:00+00:00,222.7531,21.3,11.77,47.84626,-54.09684
2022-08-08 01:19:01+00:00,222.4364,21.36,11.77,47.84626,-54.09684
2022-08-08 01:29:01+00:00,222.4864,21.37,11.77,47.84626,-54.09684
2022-08-08 01:39:01+00:00,220.0248,21.37,11.77,47.84626,-54.09684
2022-08-08 01:49:01+00:00,218.8598,21.37,11.77,47.84626,-54.09684
2022-08-08 01:59:01+00:00,221.2881,21.36,11.77,47.84626,-54.09684
2022-08-08 02:09:01+00:00,220.1898,21.36,11.77,47.84626,-54.09684
2022-08-08 02:19:00+00:00,214.8097,21.36,11.77,47.84626,-54.09684
2022-08-08 02:29:00+00:00,215.9897,21.35,11.77,47.84626,-54.09684
2022-08-08 02:39:00+00:00,221.0364,21.32,11.77,47.84626,-54.09684
2022-08-08 02:49:00+00:00,219.6898,21.3,11.77,47.84626,-54.09684
2022-08-08 02:59:00+00:00,216.6698,21.3,11.77,47.84626,-54.09684
2022-08-08 03:09:00+00:00,221.0181,21.3,11.77,47.84626,-54.09684
2022-08-08 03:19:00+00:00,224.8164,21.3,11.77,47.84626,-54.09684
2022-08-08 03:29:00+00:00,225.6731,21.3,11.77,47.84626,-54.09684
2022-08-08 03:39:00+00:00,226.8598,21.3,11.77,47.84626,-54.09684
2022-08-08 03:49:00+00:00,230.2631,21.3,11.77,47.84626,-54.09684
2022-08-08 03:59:00+00:00,233.1331,21.3,11.77,47.84626,-54.09684
2022-08-08 04:09:00+00:00,235.9431,21.3,11.77,47.84626,-54.09684
2022-08-08 04:19:00+00:00,241.5648,21.3,11.77,47.84626,-54.09684
2022-08-08 04:29:00+00:00,248.6364,21.3,11.77,47.84626,-54.09684
2022-08-08 04:39:00+00:00,251.8714,21.3,11.77,47.84626,-54.09684
2022-08-08 04:49:00+00:00,255.4814,21.3,11.77,47.84626,-54.09684
2022-08-08 04:59:00+00:00,261.7764,21.3,11.77,47.84626,-54.09684
2022-08-08 05:09:00+00:00,269.2814,21.3,11.77,47.84626,-54.09684
2022-08-08 05:19:01+00:00,275.6297,21.3,11.77,47.84626,-54.09684
2022-08-08 05:29:01+00:00,281.3014,21.3,11.77,47.84626,-54.09684
2022-08-08 05:39:01+00:00,284.8231,21.3,11.77,47.84626,-54.09684
2022-08-08 05:49:01+00:00,290.238,21.3,11.77,47.84626,-54.09684
2022-08-08 05:59:01+00:00,296.8247,21.3,11.77,47.84626,-54.09684
2022-08-08 06:09:01+00:00,300.053,21.3,11.77,47.84626,-54.09684
2022-08-08 06:19:01+00:00,300.8796,21.3,11.77,47.84626,-54.09684
2022-08-08 06:29:01+00:00,305.408,21.3,11.77,47.84626,-54.09684
2022-08-08 06:39:01+00:00,310.0063,21.3,11.77,47.84626,-54.09684
2022-08-08 06:49:01+00:00,310.668,21.3,11.77,47.84626,-54.09684
2022-08-08 06:59:01+00:00,311.1146,21.2,11.77,47.84626,-54.09684
2022-08-08 07:09:01+00:00,315.1497,21.2,11.77,47.84626,-54.09684
2022-08-08 07:19:00+00:00,318.9497,21.21,11.77,47.84626,-54.09684
2022-08-08 07:29:00+00:00,319.943,21.29,11.77,47.84626,-54.09684
2022-08-08 07:39:00+00:00,318.4113,21.3,11.77,47.84626,-54.09684
2022-08-08 07:49:00+00:00,319.8913,21.3,11.77,47.84626,-54.09684
2022-08-08 07:59:00+00:00,319.8046,21.26,11.77,47.84626,-54.09684
2022-08-08 08:09:00+00:00,321.3663,21.29,11.77,47.84626,-54.09684
2022-08-08 08:19:00+00:00,323.83799999999997,21.2,11.77,47.84626,-54.09684
2022-08-08 08:29:00+00:00,326.1496,21.18,11.77,47.84626,-54.09684
2022-08-08 08:39:00+00:00,323.653,21.18,11.77,47.84626,-54.09684
2022-08-08 08:49:00+00:00,319.3063,21.2,11.77,47.84626,-54.09684
2022-08-08 08:59:00+00:00,316.6896,21.2,11.77,47.84626,-54.09684
2022-08-08 09:09:00+00:00,312.878,21.21,11.77,47.84626,-54.09684
2022-08-08 09:19:01+00:00,307.743,21.21,11.77,47.84626,-54.09684
2022-08-08 09:29:01+00:00,302.858,21.23,11.77,47.84626,-54.09684
2022-08-08 09:39:01+00:00,301.048,21.24,11.77,47.84626,-54.09684
2022-08-08 09:49:01+00:00,296.2364,21.23,11.77,47.84626,-54.09684
2022-08-08 09:59:01+00:00,290.9131,21.22,11.77,47.84626,-54.09684
2022-08-08 10:09:01+00:00,286.1431,21.23,11.77,47.84626,-54.09684
2022-08-08 10:19:00+00:00,279.4865,21.22,11.77,47.84626,-54.09684
2022-08-08 10:29:00+00:00,275.8414,21.22,11.77,47.84626,-54.09684
2022-08-08 10:39:00+00:00,274.5797,21.21,11.77,47.84626,-54.09684
2022-08-08 10:49:00+00:00,269.3764,21.24,11.77,47.84626,-54.09684
2022-08-08 10:59:00+00:00,258.8031,21.25,11.77,47.84626,-54.09684
2022-08-08 11:09:00+00:00,252.3231,21.25,11.77,47.84626,-54.09684
2022-08-08 11:19:01+00:00,248.5598,21.26,11.77,47.84626,-54.09684
2022-08-08 11:29:01+00:00,244.2131,21.26,11.77,47.84626,-54.09684
2022-08-08 11:39:01+00:00,239.4914,21.27,11.77,47.84626,-54.09684
2022-08-08 11:49:01+00:00,238.1214,21.27,11.77,47.84626,-54.09684
2022-08-08 11:59:01+00:00,234.9131,21.27,11.77,47.84626,-54.09684
2022-08-08 12:09:01+00:00,231.9847,21.27,11.77,47.84626,-54.09684
2022-08-08 12:19:00+00:00,228.8964,21.3,11.77,47.84626,-54.09684
2022-08-08 12:29:00+00:00,222.6015,21.35,11.77,47.84626,-54.09684
2022-08-08 12:39:00+00:00,221.0564,21.4,11.77,47.84626,-54.09684
2022-08-08 12:49:00+00:00,221.7797,21.4,11.77,47.84626,-54.09684
2022-08-08 12:59:00+00:00,218.9581,21.44,11.77,47.84626,-54.09684
2022-08-08 13:09:00+00:00,217.0998,21.49,11.77,47.84626,-54.09684
2022-08-08 13:19:01+00:00,219.8698,21.49,11.86,47.84626,-54.09684
2022-08-08 13:29:01+00:00,220.4915,21.46,11.86,47.84626,-54.09684
2022-08-08 13:39:01+00:00,217.9298,21.4,11.86,47.84626,-54.09684
2022-08-08 13:49:01+00:00,218.2481,21.4,11.86,47.84626,-54.09684
2022-08-08 13:59:01+00:00,221.7481,21.4,11.86,47.84626,-54.09684
2022-08-08 14:09:01+00:00,224.5181,21.4,11.86,47.84626,-54.09684
2022-08-08 14:19:00+00:00,224.5198,21.4,11.93,47.84626,-54.09684
2022-08-08 14:29:00+00:00,223.6931,21.4,11.93,47.84626,-54.09684
2022-08-08 14:39:00+00:00,225.0498,21.4,11.93,47.84626,-54.09684
2022-08-08 14:49:00+00:00,227.498,21.4,11.93,47.84626,-54.09684
2022-08-08 14:59:00+00:00,228.0814,21.4,11.93,47.84626,-54.09684
2022-08-08 15:09:00+00:00,228.1881,21.43,11.93,47.84626,-54.09684
2022-08-08 15:19:00+00:00,231.1315,21.45,12.09,47.84626,-54.09684
2022-08-08 15:29:00+00:00,234.0481,21.45,12.09,47.84626,-54.09684
2022-08-08 15:39:00+00:00,235.8131,21.4,12.09,47.84626,-54.09684
2022-08-08 15:49:00+00:00,239.4898,21.4,12.09,47.84626,-54.09684
2022-08-08 15:59:00+00:00,245.0231,21.4,12.09,47.84626,-54.09684
2022-08-08 16:09:00+00:00,248.6748,21.4,12.09,47.84626,-54.09684
2022-08-08 16:19:01+00:00,250.3864,21.4,12.01,47.84626,-54.09684
2022-08-08 16:29:01+00:00,256.8848,21.4,12.01,47.84626,-54.09684
2022-08-08 16:39:01+00:00,264.0915,21.4,12.01,47.84626,-54.09684
2022-08-08 16:49:01+00:00,266.7598,21.4,12.01,47.84626,-54.09684
2022-08-08 16:59:01+00:00,271.8714,21.46,12.01,47.84626,-54.09684
2022-08-08 17:09:01+00:00,281.5881,21.3,12.01,47.84626,-54.09684
2022-08-08 17:19:00+00:00,290.6931,21.4,12.01,47.84626,-54.09684
2022-08-08 17:29:00+00:00,292.3463,21.49,12.01,47.84626,-54.09684
2022-08-08 17:39:00+00:00,298.4313,21.5,12.01,47.84626,-54.09684
2022-08-08 17:49:00+00:00,307.988,21.3,12.01,47.84626,-54.09684
2022-08-08 17:59:00+00:00,313.5063,21.3,12.01,47.84626,-54.09684
2022-08-08 18:09:00+00:00,316.0846,21.34,12.01,47.84626,-54.09684
2022-08-08 18:19:00+00:00,324.1729,21.37,11.93,47.84626,-54.09684
2022-08-08 18:29:00+00:00,331.9530000000001,21.37,11.93,47.84626,-54.09684
2022-08-08 18:39:00+00:00,335.668,21.42,11.93,47.84626,-54.09684
2022-08-08 18:49:00+00:00,338.6313,21.49,11.93,47.84626,-54.09684
2022-08-08 18:59:00+00:00,345.1379,21.45,11.93,47.84626,-54.09684
2022-08-08 19:09:00+00:00,348.228,21.49,11.93,47.84626,-54.09684
2022-08-08 19:19:00+00:00,345.1413,21.5,11.93,47.84626,-54.09684
2022-08-08 19:29:00+00:00,351.5862,21.5,11.93,47.84626,-54.09684
2022-08-08 19:39:00+00:00,356.9879,21.57,11.93,47.84626,-54.09684
2022-08-08 19:49:00+00:00,354.5096,21.6,11.93,47.84626,-54.09684
2022-08-08 19:59:00+00:00,354.98800000000006,21.63,11.93,47.84626,-54.09684
2022-08-08 20:09:00+00:00,359.098,21.67,11.93,47.84626,-54.09684
2022-08-08 20:19:01+00:00,365.0062,21.7,11.93,47.84626,-54.09684
2022-08-08 20:29:01+00:00,364.1795,21.7,11.93,47.84626,-54.09684
2022-08-08 20:39:01+00:00,365.2663,21.79,11.93,47.84626,-54.09684
2022-08-08 20:49:01+00:00,364.8379,21.9,11.93,47.84626,-54.09684
2022-08-08 20:59:01+00:00,361.0579,22.0,11.93,47.84626,-54.09684
2022-08-08 21:09:01+00:00,356.3696,22.09,11.93,47.84626,-54.09684
2022-08-08 21:19:00+00:00,351.773,22.1,11.93,47.84626,-54.09684
2022-08-08 21:29:00+00:00,350.898,22.1,11.93,47.84626,-54.09684
2022-08-08 21:39:00+00:00,352.4429,22.1,11.93,47.84626,-54.09684
2022-08-08 21:49:00+00:00,351.5613,22.1,11.93,47.84626,-54.09684
2022-08-08 21:59:00+00:00,346.3279,22.1,11.93,47.84626,-54.09684
2022-08-08 22:09:00+00:00,343.9146,22.09,11.93,47.84626,-54.09684
2022-08-08 22:19:00+00:00,340.7679,22.08,11.86,47.84626,-54.09684
2022-08-08 22:29:00+00:00,333.8963,22.02,11.86,47.84626,-54.09684
2022-08-08 22:39:00+00:00,324.968,22.0,11.86,47.84626,-54.09684
2022-08-08 22:49:00+00:00,321.0212,22.0,11.86,47.84626,-54.09684
2022-08-08 22:59:00+00:00,311.6713,22.0,11.86,47.84626,-54.09684
2022-08-08 23:09:00+00:00,302.5714,21.99,11.86,47.84626,-54.09684
2022-08-08 23:19:01+00:00,291.7264,21.96,11.86,47.84626,-54.09684
2022-08-08 23:29:01+00:00,287.1331,21.92,11.86,47.84626,-54.09684
2022-08-08 23:39:01+00:00,284.298,21.9,11.86,47.84626,-54.09684
2022-08-08 23:49:01+00:00,279.2197,21.9,11.86,47.84626,-54.09684
2022-08-08 23:59:01+00:00,268.3114,21.9,11.86,47.84626,-54.09684
